[[{"header":{"parameterUnit":"m.s-1","parameterCategory":2,"la1":30.2991,"la2":30.254,"lo1":-89.0895,"lo2":-89.0444,"dx":0.0017,"dy":0.0017,"nx":28,"ny":28,"refTime":"2022-12-05T15:00:00:Z","depth":"0","parameterNumber":2,"parameterNumberName":"U-component_of_CURRENTS"},"data":[0,0,0,0,0,0,0,0,0,0,0,0,0,0,0,0,0,0,0,0,0,0,0,0,0,0,0,0,0,0,0,0,0,0,0,0,0,0,0,0,0,0,0,0,0,0,0,0,0,0,0,0,0,0,0,0,0,0,0.582,0.5822,0,0.5969,0.597,0.5972,0.5988,0.5987,0.5986,0.5985,0.5957,0.5957,0.5957,0,0,0,0,0,0,0,0,0,0,0,0,0,0.5574,0.5578,0.5819,0.5822,0.5824,0.5969,0.597,0.5972,0.5988,0.5987,0.5985,0.5984,0.5957,0.5957,0.5957,0,0,0,0,0,0,0,0,0,0,0,0,0,0.5693,0.5579,0.5819,0.5853,0.5858,0.5968,0.597,0.5972,0.5988,0.5987,0.5985,0.5984,0.5957,0.5957,0.5958,0.5992,0,0,0.5959,0.5959,0,0,0,0,0,0,0,0,0.5686,0.5702,0.5846,0.5851,0.5857,0.5962,0.5874,0.5972,0.5989,0.5934,0.5985,0.5983,0.5947,0.5948,0.5975,0.5991,0.599,0.5959,0.5959,0.5959,0.5959,0,0,0,0,0,0,0,0.5678,0.5695,0.5874,0.5848,0.5855,0.587,0.5885,0.5893,0.594,0.5938,0.5941,0.5966,0.5947,0.5975,0.5974,0.5989,0.5959,0.5959,0.5959,0.5959,0.6101,0.6104,0,0,0,0,0,0,0.5671,0.5688,0.5869,0.5879,0.5771,0.5876,0.5892,0.5926,0.5944,0.5948,0.5967,0.5966,0.5975,0.5974,0.5973,0.5993,0.5959,0.596,0.596,0.6097,0.6101,0.6105,0,0,0,0,0,0,0.5665,0.5686,0.5863,0.5789,0.5814,0.5882,0.592,0.593,0.5955,0.5969,0.5968,0.5982,0.5974,0.5972,0.6016,0.5992,0.596,0.596,0.6093,0.6099,0.6103,0.6046,0,0,0,0,0,0,0.5657,0.5683,0.5697,0.579,0.5818,0.5911,0.5923,0.5934,0.5975,0.5975,0.5981,0.5978,0.5972,0.6016,0.6017,0.5992,0.596,0.6089,0.6096,0.6102,0.6044,0.6049,0.6053,0,0,0,0,0,0.5648,0.5665,0.5697,0.5719,0.5838,0.5912,0.5927,0.5967,0.5977,0.5983,0.6025,0.5977,0.6058,0.602,0.6019,0.5994,0.6085,0.6094,0.6101,0.6042,0.6048,0.6053,0,0,0,0,0,0,0.5548,0.5673,0.5708,0.5758,0.5826,0.5916,0.5923,0.5971,0.6013,0.6003,0.6021,0.6023,0.6061,0.6063,0.6021,0.607,0.6064,0.6072,0.6019,0.6025,0.603,0.6043,0.5961,0,0,0,0,0,0.5543,0.5587,0.5703,0.5732,0.5766,0.585,0.5884,0.592,0.5978,0.5994,0.6012,0.6047,0.6099,0.6088,0.6132,0.614,0.6191,0.6135,0.614,0.6143,0.6165,0.6252,0.6264,0.6131,0.6131,0.6131,0,0,0.5505,0.5581,0.5602,0.5714,0.5762,0.5819,0.5862,0.5906,0.5951,0.5982,0.6021,0.6069,0.6121,0.6151,0.6163,0.6133,0.6211,0.6153,0.6154,0.6175,0.6261,0.6273,0.6284,0.6137,0.6136,0.6135,0,0,0.5466,0.5524,0.556,0.5623,0.5715,0.5773,0.5789,0.5885,0.5917,0.5985,0.6036,0.609,0.6131,0.6173,0.62,0.6267,0.6259,0.6263,0.6249,0.6332,0.6342,0.6352,0.6425,0.6442,0.623,0.623,0.623,0,0.5412,0.5492,0.5572,0.5628,0.5669,0.5754,0.5794,0.5854,0.595,0.598,0.5983,0.6121,0.6151,0.6219,0.6254,0.6267,0.6318,0.6199,0.6331,0.6342,0.6353,0.6426,0.6445,0.6228,0.6228,0.6229,0.6229,0,0.5428,0.5481,0.5494,0.5601,0.5649,0.5686,0.579,0.5833,0.5881,0.5946,0.6029,0.6107,0.6182,0.6197,0.6245,0.633,0.6345,0.6343,0.6294,0.6361,0.6436,0.6457,0.6226,0.6226,0.6227,0.6227,0,0,0.5332,0.5479,0.548,0.5525,0.5637,0.5679,0.5741,0.5832,0.587,0.5952,0.6008,0.6126,0.6166,0.6212,0.6262,0.633,0.6452,0.6363,0.6368,0.6398,0.6636,0.6537,0.655,0.6458,0.6462,0.6465,0.6653,0,0.5314,0.5401,0.548,0.5533,0.5587,0.5669,0.5718,0.5801,0.587,0.594,0.6033,0.6116,0.6169,0.6204,0.6286,0.6434,0.6507,0.6402,0.6603,0.661,0.648,0.6571,0.6375,0.6517,0.6673,0.6677,0.6679,0,0.5317,0.5379,0.5436,0.5525,0.5548,0.5584,0.5663,0.5728,0.5844,0.5893,0.5982,0.607,0.6217,0.624,0.6493,0.6422,0.6542,0.6636,0.6645,0.659,0.6549,0.6484,0.6549,0.6373,0.6711,0.6708,0.6706,0,0.5241,0.5341,0.5379,0.5415,0.5531,0.5549,0.5601,0.5703,0.5757,0.5878,0.5918,0.6082,0.617,0.6358,0.6564,0.6547,0.6824,0.6813,0.6833,0.6827,0.6723,0.67,0.6609,0.6993,0.6993,0.6992,0.6992,0,0.5217,0.524,0.5345,0.5371,0.5395,0.5491,0.5529,0.5596,0.5697,0.5749,0.5892,0.5962,0.621,0.6385,0.6572,0.6764,0.6833,0.6868,0.6878,0.6698,0.6672,0.6564,0.6465,0.6999,0.6998,0.6996,0.6995,0,0.5146,0.5216,0.5263,0.5353,0.5373,0.5392,0.5484,0.5515,0.5615,0.5689,0.5732,0.5915,0.6135,0.6363,0.6663,0.675,0.6778,0.7,0.6763,0.6741,0.6559,0.6465,0.6266,0.6089,0.7063,0.7062,0.7061,0,0.5129,0.5151,0.5227,0.5239,0.5276,0.5326,0.5351,0.546,0.5504,0.5656,0.5682,0.5892,0.6028,0.64,0.6594,0.6865,0.6712,0.6818,0.675,0.6537,0.6444,0.6224,0.6073,0.6607,0.6602,0.6599,0.6595,0,0.5078,0.5095,0.5125,0.5161,0.518,0.5215,0.5267,0.5285,0.5408,0.5474,0.5571,0.5692,0.5998,0.618,0.6488,0.6626,0.6469,0.6745,0.6597,0.6141,0.5827,0.5664,0.6493,0.6562,0.6565,0.6567,0.6569,0.6571,0.5012,0.5009,0.5042,0.5062,0.508,0.5077,0.5056,0.5123,0.5164,0.5229,0.5417,0.5542,0.5852,0.6245,0.6288,0.6232,0.6231,0.62,0.6132,0.5952,0.5662,0.6401,0.642,0.6423,0.6425,0.6427,0.6429,0,0.4925,0.4932,0.4946,0.4939,0.4905,0.4964,0.4971,0.4929,0.4914,0.5062,0.5157,0.54,0.5587,0.5761,0.5864,0.5712,0.5472,0.5572,0.523,0.5137,0.5888,0.5748,0.5528,0.5529,0.5529,0.5529,0.5529,0.5529,0.4879,0.4852,0.4861,0.4771,0.4757,0.4665,0.4638,0.4593,0.4657,0.4676,0.4762,0.4921,0.5187,0.5455,0.5346,0.5208,0.4821,0.4651,0.4604,0.5155,0.5208,0.5258,0.5103,0.4752,0.4751,0.3709,0.3701,0.3694]},{"header":{"parameterUnit":"m.s-1","parameterCategory":2,"la1":30.2991,"la2":30.254,"lo1":-89.0895,"lo2":-89.0444,"dx":0.0017,"dy":0.0017,"nx":28,"ny":28,"refTime":"2022-12-05T15:00:00:Z","depth":"0","parameterNumber":3,"parameterNumberName":"V-component_of_CURRENTS"},"data":[0,0,0,0,0,0,0,0,0,0,0,0,0,0,0,0,0,0,0,0,0,0,0,0,0,0,0,0,0,0,0,0,0,0,0,0,0,0,0,0,0,0,0,0,0,0,0,0,0,0,0,0,0,0,0,0,0,0,0.1202,0.1202,0,0.1183,0.1183,0.1182,0.1132,0.1131,0.113,0.1129,0.0995,0.0992,0.099,0,0,0,0,0,0,0,0,0,0,0,0,0,0.1192,0.1192,0.1202,0.1202,0.1202,0.1183,0.1183,0.1182,0.1132,0.1131,0.1129,0.1128,0.0995,0.0992,0.0989,0,0,0,0,0,0,0,0,0,0,0,0,0,0.1187,0.1192,0.1202,0.1174,0.1171,0.1183,0.1183,0.1182,0.1132,0.1131,0.1129,0.1127,0.0996,0.0993,0.0989,0.1,0,0,0.0978,0.0976,0,0,0,0,0,0,0,0,0.1188,0.1188,0.1178,0.1176,0.1173,0.1157,0.113,0.1115,0.1133,0.1148,0.1129,0.1127,0.1039,0.1032,0.1035,0.0994,0.0988,0.0977,0.0975,0.0973,0.0972,0,0,0,0,0,0,0,0.1188,0.1188,0.1195,0.1178,0.1175,0.116,0.1158,0.1127,0.1102,0.1146,0.1143,0.114,0.1037,0.1039,0.1031,0.0986,0.0977,0.0974,0.0972,0.097,0.1015,0.1018,0,0,0,0,0,0,0.1191,0.1189,0.1196,0.1195,0.1175,0.1162,0.1159,0.1165,0.1104,0.1094,0.1141,0.1138,0.1046,0.1035,0.1026,0.1068,0.0973,0.097,0.0968,0.1012,0.1016,0.102,0,0,0,0,0,0,0.1191,0.1193,0.1197,0.119,0.1189,0.1164,0.117,0.1165,0.1166,0.1102,0.1089,0.1147,0.1044,0.1031,0.1035,0.106,0.0968,0.0965,0.1008,0.1013,0.1018,0.113,0,0,0,0,0,0,0.1191,0.1193,0.1203,0.1191,0.119,0.1204,0.1172,0.1166,0.1166,0.1161,0.1102,0.1088,0.1042,0.1041,0.1031,0.1053,0.0962,0.1003,0.101,0.1016,0.1122,0.1138,0.1152,0,0,0,0,0,0.1191,0.1208,0.1204,0.1204,0.1203,0.1204,0.1203,0.1179,0.1169,0.1173,0.1162,0.109,0.1075,0.1041,0.1029,0.105,0.1,0.1008,0.1016,0.1115,0.1135,0.1152,0,0,0,0,0,0,0.121,0.1204,0.1199,0.1214,0.121,0.1195,0.1196,0.1191,0.1188,0.1179,0.1129,0.1116,0.1133,0.1091,0.1055,0.1091,0.1027,0.1033,0.1108,0.1126,0.1141,0.1165,0.0959,0,0,0,0,0,0.1221,0.1228,0.1222,0.1233,0.1233,0.1221,0.1221,0.1206,0.12,0.1196,0.1164,0.1148,0.1159,0.114,0.1131,0.1139,0.1123,0.1151,0.1166,0.1179,0.1197,0.1233,0.1253,0.1045,0.1045,0.1045,0,0,0.1228,0.1228,0.123,0.1237,0.123,0.1246,0.1216,0.1215,0.124,0.1181,0.1202,0.1195,0.118,0.1204,0.1205,0.1163,0.123,0.1189,0.12,0.1211,0.1243,0.1263,0.1281,0.105,0.1049,0.1049,0,0,0.1247,0.1249,0.126,0.1264,0.1259,0.126,0.1266,0.1259,0.1265,0.1288,0.1278,0.1307,0.1277,0.1298,0.1302,0.14,0.1319,0.1381,0.1457,0.1492,0.1509,0.1523,0.1518,0.1531,0.1375,0.1375,0.1376,0,0.1254,0.128,0.1264,0.1279,0.1296,0.1274,0.1303,0.1313,0.1312,0.1343,0.13,0.136,0.1334,0.1417,0.1454,0.1431,0.1421,0.138,0.151,0.1524,0.1537,0.1528,0.1541,0.1382,0.1381,0.138,0.138,0,0.1281,0.1307,0.1314,0.1334,0.1349,0.1367,0.138,0.1403,0.1407,0.1422,0.1492,0.1488,0.1524,0.1527,0.1513,0.1609,0.1561,0.1532,0.1456,0.1564,0.1548,0.156,0.1391,0.1388,0.1387,0.1385,0,0,0.1295,0.1328,0.1333,0.1368,0.1386,0.1407,0.1459,0.1518,0.1574,0.1573,0.166,0.1697,0.1693,0.1704,0.1697,0.1727,0.1804,0.1668,0.1667,0.1649,0.1853,0.1726,0.1725,0.1788,0.1791,0.1793,0.1799,0,0.1329,0.1381,0.1391,0.146,0.1498,0.1514,0.1576,0.1623,0.1651,0.1721,0.175,0.1813,0.176,0.179,0.1818,0.1835,0.1842,0.1803,0.1763,0.1761,0.1625,0.1738,0.1669,0.1661,0.181,0.1812,0.1813,0,0.1368,0.1402,0.1471,0.1558,0.1577,0.1615,0.1723,0.1771,0.1857,0.1884,0.1941,0.1948,0.2038,0.1954,0.2011,0.1985,0.1926,0.1907,0.1906,0.1759,0.1658,0.1581,0.1675,0.133,0.183,0.1828,0.1827,0,0.1409,0.1475,0.1542,0.1563,0.164,0.1693,0.1743,0.1824,0.1904,0.1992,0.2059,0.2118,0.2177,0.2149,0.2103,0.2063,0.2132,0.2065,0.1885,0.1873,0.1793,0.1769,0.1539,0.2071,0.2071,0.2071,0.2071,0,0.1465,0.1519,0.1566,0.1601,0.1707,0.1739,0.186,0.1915,0.2023,0.2149,0.2148,0.2264,0.2229,0.2254,0.2169,0.208,0.2179,0.1925,0.1885,0.1827,0.1807,0.1483,0.131,0.2071,0.2071,0.2071,0.2071,0,0.1507,0.1534,0.1614,0.1693,0.1729,0.1801,0.1936,0.2025,0.2112,0.2279,0.2323,0.2411,0.2462,0.2387,0.2357,0.2168,0.1888,0.2009,0.192,0.1867,0.1329,0.1169,0.0991,0.0797,0.1813,0.181,0.1808,0,0.1535,0.1576,0.167,0.1723,0.176,0.1868,0.1956,0.2064,0.2169,0.2387,0.2484,0.2574,0.2692,0.2573,0.2295,0.2103,0.1832,0.1788,0.1689,0.1303,0.1097,0.1034,0.0879,0.163,0.1626,0.1623,0.1621,0,0.158,0.1605,0.1662,0.1768,0.1858,0.1985,0.2115,0.2224,0.2382,0.2546,0.277,0.2893,0.278,0.262,0.2276,0.2051,0.1494,0.1713,0.1371,0.0982,0.0851,0.0642,0.1584,0.1594,0.1597,0.1599,0.16,0.1601,0.1597,0.1646,0.171,0.1819,0.193,0.2088,0.2215,0.2379,0.2596,0.2894,0.2982,0.3251,0.292,0.2491,0.2058,0.1195,0.1302,0.095,0.0804,0.0792,0.0542,0.1387,0.1304,0.1305,0.1306,0.1306,0.1307,0,0.1603,0.1661,0.176,0.1894,0.2026,0.2089,0.2315,0.2474,0.2743,0.3085,0.3326,0.3415,0.2813,0.2187,0.1107,0.0448,0.0208,0.0088,-0.0025,-0.013,0.0674,0.0593,0.0282,0.0282,0.0283,0.0283,0.0283,0.0284,0.1603,0.168,0.1741,0.1943,0.2056,0.2268,0.2412,0.2669,0.2955,0.3419,0.3715,0.3933,0.3533,0.1497,-0.0022,-0.0414,-0.0851,-0.0884,-0.1108,-0.0603,-0.0534,-0.0468,-0.0587,-0.114,-0.1141,-0.1849,-0.1857,-0.1863]}],[{"header":{"parameterUnit":"m.s-1","parameterCategory":2,"la1":30.2991,"la2":30.254,"lo1":-89.0895,"lo2":-89.0444,"dx":0.0017,"dy":0.0017,"nx":28,"ny":28,"refTime":"2022-12-05T15:00:00:Z","depth":"2","parameterNumber":2,"parameterNumberName":"U-component_of_CURRENTS"},"data":[0,0,0,0,0,0,0,0,0,0,0,0,0,0,0,0,0,0,0,0,0,0,0,0,0,0,0,0,0,0,0,0,0,0,0,0,0,0,0,0,0,0,0,0,0,0,0,0,0,0,0,0,0,0,0,0,0,0,0.2486,0.2485,0,0.2464,0.2464,0.2464,0.2513,0.2515,0.2516,0.2517,0.2701,0.2705,0.2708,0,0,0,0,0,0,0,0,0,0,0,0,0,0.2331,0.2335,0.2486,0.2485,0.2485,0.2464,0.2464,0.2464,0.2513,0.2515,0.2516,0.2518,0.27,0.2704,0.2709,0,0,0,0,0,0,0,0,0,0,0,0,0,0.2365,0.2337,0.2486,0.2506,0.2507,0.2464,0.2464,0.2464,0.2512,0.2515,0.2517,0.2519,0.2699,0.2704,0.2709,0.2699,0,0,0.2725,0.2728,0,0,0,0,0,0,0,0,0.2363,0.2371,0.2503,0.2504,0.2506,0.2492,0.2476,0.2552,0.2512,0.2512,0.2517,0.252,0.2648,0.2657,0.2648,0.2708,0.2715,0.2726,0.2729,0.2731,0.2733,0,0,0,0,0,0,0,0.2361,0.237,0.2479,0.2503,0.2504,0.2434,0.2443,0.2489,0.2573,0.2512,0.2515,0.251,0.2651,0.2642,0.2653,0.2718,0.2726,0.2731,0.2734,0.2736,0.2874,0.2875,0,0,0,0,0,0,0.2372,0.237,0.2479,0.2478,0.2436,0.2436,0.2446,0.2496,0.2568,0.2579,0.2508,0.2512,0.2632,0.2647,0.266,0.281,0.2731,0.2736,0.274,0.2874,0.2874,0.2875,0,0,0,0,0,0,0.2369,0.2384,0.248,0.2418,0.2425,0.2438,0.2491,0.2494,0.252,0.2562,0.2578,0.2535,0.2634,0.2653,0.2726,0.2812,0.2739,0.2744,0.2873,0.2874,0.2874,0.301,0,0,0,0,0,0,0.2366,0.2385,0.2401,0.2421,0.243,0.2477,0.2489,0.2492,0.251,0.2517,0.2591,0.2607,0.2637,0.2718,0.2732,0.2818,0.2748,0.2872,0.2873,0.2874,0.3005,0.3016,0.3024,0,0,0,0,0,0.2361,0.2379,0.2404,0.2414,0.2463,0.2477,0.2475,0.2488,0.251,0.252,0.2573,0.2607,0.2733,0.2723,0.2739,0.2829,0.2872,0.2873,0.2874,0.3001,0.3014,0.3024,0,0,0,0,0,0,0.2321,0.2386,0.2414,0.2454,0.2474,0.2485,0.249,0.2501,0.2543,0.2572,0.2615,0.2635,0.2735,0.2736,0.2723,0.286,0.2807,0.2812,0.2898,0.291,0.292,0.2943,0.2752,0,0,0,0,0,0.2321,0.2365,0.2404,0.244,0.2461,0.2482,0.2484,0.2506,0.2545,0.2566,0.2624,0.268,0.274,0.2789,0.283,0.2907,0.2913,0.2966,0.2976,0.2985,0.3007,0.3099,0.3122,0.2878,0.2878,0.2878,0,0,0.2315,0.2355,0.2379,0.2433,0.2462,0.2503,0.2493,0.2526,0.2582,0.2583,0.2692,0.2722,0.2761,0.2854,0.2899,0.2879,0.3043,0.2986,0.2994,0.3012,0.3103,0.3128,0.315,0.2879,0.2879,0.2879,0,0,0.2319,0.2377,0.2411,0.244,0.2486,0.2515,0.2536,0.2584,0.2635,0.2713,0.274,0.2815,0.2898,0.2955,0.2989,0.3067,0.3086,0.3077,0.317,0.326,0.3283,0.3303,0.3294,0.3313,0.309,0.3091,0.3091,0,0.231,0.2374,0.2413,0.2454,0.2492,0.2538,0.2589,0.264,0.2707,0.2769,0.2772,0.2918,0.2956,0.3083,0.3112,0.3104,0.3116,0.3137,0.328,0.33,0.3319,0.3306,0.3325,0.3097,0.3097,0.3096,0.3095,0,0.2336,0.2391,0.2421,0.2516,0.2557,0.2607,0.2695,0.2764,0.2838,0.2894,0.3036,0.308,0.317,0.3193,0.3189,0.3337,0.3287,0.3283,0.3268,0.3353,0.3331,0.3348,0.3107,0.3105,0.3103,0.3101,0,0,0.2332,0.2422,0.2434,0.2482,0.2601,0.2634,0.277,0.289,0.2988,0.3082,0.3211,0.3318,0.3351,0.3386,0.34,0.3478,0.3601,0.3446,0.3448,0.3465,0.3744,0.3628,0.3634,0.3643,0.3648,0.3652,0.366,0,0.2353,0.2412,0.2474,0.257,0.2628,0.2732,0.2849,0.2969,0.309,0.3224,0.3324,0.3444,0.3426,0.3483,0.3568,0.3613,0.3661,0.3595,0.3634,0.3633,0.3547,0.3657,0.342,0.3403,0.3677,0.3679,0.3681,0,0.2366,0.2413,0.2494,0.2617,0.2657,0.2734,0.2934,0.304,0.3247,0.3346,0.3497,0.357,0.3724,0.3676,0.3826,0.3792,0.3777,0.3783,0.3784,0.3651,0.3553,0.3368,0.3424,0.371,0.3707,0.3705,0.3704,0,0.2322,0.2426,0.2491,0.2533,0.2688,0.2775,0.2876,0.3085,0.3203,0.3436,0.3545,0.3725,0.3834,0.3898,0.3925,0.3903,0.404,0.4006,0.3863,0.385,0.3642,0.3604,0.4082,0.4082,0.4082,0.4082,0.4082,0,0.232,0.2367,0.2474,0.2511,0.2623,0.2753,0.2912,0.3047,0.3265,0.3412,0.3603,0.3724,0.3909,0.4002,0.3985,0.3987,0.4094,0.3905,0.388,0.367,0.3636,0.3899,0.3878,0.4082,0.4082,0.4082,0.4082,0,0.2271,0.233,0.2398,0.2545,0.2605,0.2685,0.2896,0.3006,0.3232,0.3433,0.3517,0.3779,0.3914,0.4009,0.411,0.406,0.406,0.4,0.3694,0.3636,0.3778,0.3763,0.3881,0.3877,0.3875,0.3872,0.387,0,0.2235,0.2278,0.2397,0.2445,0.2521,0.2658,0.2762,0.2973,0.3082,0.3427,0.3492,0.3733,0.3833,0.3941,0.394,0.3913,0.3964,0.3635,0.3564,0.3811,0.3776,0.3765,0.3754,0.3306,0.3299,0.3294,0.329,0,0.2209,0.2258,0.231,0.2391,0.248,0.2586,0.2732,0.2786,0.3047,0.3197,0.3378,0.35,0.3687,0.3619,0.3644,0.3574,0.3643,0.3525,0.3927,0.3395,0.3272,0.3235,0.3243,0.3243,0.3248,0.3251,0.3254,0.3256,0.2176,0.2193,0.2261,0.2324,0.2416,0.2489,0.2514,0.2637,0.2739,0.2905,0.3098,0.3194,0.3346,0.3264,0.3177,0.3144,0.3361,0.3223,0.3239,0.326,0.3195,0.3075,0.2991,0.2994,0.2996,0.2999,0.3001,0,0.2127,0.2169,0.2206,0.2256,0.2274,0.2408,0.2479,0.243,0.2438,0.2639,0.2736,0.2596,0.2623,0.2757,0.2667,0.268,0.2645,0.2555,0.2514,0.2565,0.2609,0.2508,0.2122,0.2119,0.2116,0.2113,0,0,0.2099,0.2089,0.208,0.2078,0.2159,0.2147,0.2148,0.2093,0.2141,0.2098,0.2172,0.2427,0.2667,0.2334,0.2338,0.2227,0.2355,0.2131,0.2849,0.2852,0.2891,0.3024,0.2931,0,0,0,0,0]},{"header":{"parameterUnit":"m.s-1","parameterCategory":2,"la1":30.2991,"la2":30.254,"lo1":-89.0895,"lo2":-89.0444,"dx":0.0017,"dy":0.0017,"nx":28,"ny":28,"refTime":"2022-12-05T15:00:00:Z","depth":"2","parameterNumber":3,"parameterNumberName":"V-component_of_CURRENTS"},"data":[0,0,0,0,0,0,0,0,0,0,0,0,0,0,0,0,0,0,0,0,0,0,0,0,0,0,0,0,0,0,0,0,0,0,0,0,0,0,0,0,0,0,0,0,0,0,0,0,0,0,0,0,0,0,0,0,0,0,-0.0377,-0.0377,0,-0.0451,-0.0453,-0.0455,-0.062,-0.0622,-0.0625,-0.0627,-0.0826,-0.0829,-0.0832,0,0,0,0,0,0,0,0,0,0,0,0,0,-0.0277,-0.0279,-0.0377,-0.0377,-0.0377,-0.0451,-0.0453,-0.0455,-0.0619,-0.0622,-0.0625,-0.0628,-0.0825,-0.0828,-0.0832,0,0,0,0,0,0,0,0,0,0,0,0,0,-0.0341,-0.028,-0.0377,-0.0462,-0.0469,-0.0451,-0.0453,-0.0455,-0.0618,-0.0622,-0.0626,-0.063,-0.0824,-0.0828,-0.0832,-0.0782,0,0,-0.0846,-0.0848,0,0,0,0,0,0,0,0,-0.0337,-0.0346,-0.0449,-0.0456,-0.0464,-0.0522,-0.049,-0.0568,-0.0618,-0.0571,-0.0627,-0.0632,-0.0727,-0.074,-0.0756,-0.0791,-0.08,-0.0846,-0.0849,-0.0851,-0.0852,0,0,0,0,0,0,0,-0.0333,-0.0343,-0.0416,-0.0449,-0.0458,-0.046,-0.0476,-0.0505,-0.0636,-0.0576,-0.0585,-0.0578,-0.0734,-0.0751,-0.0762,-0.0803,-0.0846,-0.085,-0.0852,-0.0854,-0.0994,-0.0996,0,0,0,0,0,0,-0.0307,-0.0339,-0.0413,-0.0417,-0.0399,-0.0459,-0.0477,-0.0507,-0.0633,-0.0653,-0.0575,-0.0586,-0.0742,-0.0757,-0.077,-0.083,-0.085,-0.0855,-0.0857,-0.0993,-0.0995,-0.0996,0,0,0,0,0,0,-0.0305,-0.0315,-0.041,-0.037,-0.0382,-0.0457,-0.0489,-0.0506,-0.0542,-0.063,-0.0655,-0.0594,-0.0746,-0.0764,-0.0849,-0.0835,-0.0857,-0.086,-0.0992,-0.0994,-0.0995,-0.0878,0,0,0,0,0,0,-0.0303,-0.0314,-0.0309,-0.037,-0.0383,-0.0396,-0.0485,-0.0505,-0.0526,-0.0542,-0.0653,-0.0675,-0.075,-0.0842,-0.0853,-0.0841,-0.0864,-0.0991,-0.0993,-0.0995,-0.088,-0.0875,-0.0871,0,0,0,0,0,-0.03,-0.0278,-0.0309,-0.0316,-0.0381,-0.0393,-0.04,-0.0471,-0.0522,-0.0522,-0.0638,-0.0673,-0.0864,-0.0846,-0.0859,-0.0848,-0.099,-0.0992,-0.0995,-0.0882,-0.0876,-0.0871,0,0,0,0,0,0,-0.0233,-0.0293,-0.033,-0.033,-0.0355,-0.0418,-0.0412,-0.0456,-0.054,-0.0577,-0.0678,-0.0707,-0.0783,-0.0831,-0.0809,-0.0902,-0.0933,-0.0938,-0.0844,-0.0839,-0.0834,-0.0773,-0.0868,0,0,0,0,0,-0.0208,-0.0221,-0.027,-0.027,-0.0281,-0.0344,-0.0351,-0.0405,-0.0482,-0.0523,-0.0608,-0.0711,-0.0793,-0.0831,-0.0912,-0.0936,-0.0956,-0.0945,-0.094,-0.0935,-0.09,-0.0935,-0.0928,-0.1004,-0.1004,-0.1004,0,0,-0.0182,-0.0213,-0.0221,-0.0255,-0.0291,-0.0291,-0.0363,-0.0381,-0.0406,-0.0527,-0.0602,-0.0695,-0.0803,-0.0866,-0.09,-0.0906,-0.0928,-0.0938,-0.0933,-0.09,-0.0937,-0.0929,-0.0922,-0.1006,-0.1006,-0.1005,0,0,-0.0122,-0.0168,-0.0153,-0.0168,-0.0201,-0.0243,-0.0243,-0.0314,-0.0375,-0.0439,-0.0555,-0.0633,-0.0748,-0.082,-0.0871,-0.0876,-0.0911,-0.0913,-0.0821,-0.0856,-0.0848,-0.0842,-0.0853,-0.0848,-0.0898,-0.0898,-0.0898,0,-0.0086,-0.0085,-0.0142,-0.0127,-0.0129,-0.0218,-0.0197,-0.0258,-0.0355,-0.0391,-0.046,-0.0628,-0.072,-0.0778,-0.0803,-0.0856,-0.088,-0.0826,-0.0843,-0.0837,-0.0832,-0.0846,-0.0842,-0.0892,-0.0893,-0.0893,-0.0894,0,-0.0018,-0.0012,-0.0003,-0.003,-0.0037,-0.0035,-0.0113,-0.0156,-0.0242,-0.0303,-0.0396,-0.0526,-0.0612,-0.0664,-0.0739,-0.0751,-0.078,-0.0837,-0.0838,-0.0816,-0.0834,-0.0831,-0.0885,-0.0887,-0.0888,-0.089,0,0,0.0031,0.0044,0.0046,0.0061,0.0012,0.0014,-0.003,-0.0076,-0.0091,-0.0214,-0.0223,-0.0388,-0.0446,-0.0507,-0.0602,-0.0634,-0.0635,-0.0708,-0.0713,-0.0683,-0.0692,-0.0705,-0.0705,-0.0695,-0.0695,-0.0694,-0.0714,0,0.0096,0.0165,0.0142,0.0189,0.0209,0.0132,0.0113,0.0051,-0.0029,-0.0066,-0.0199,-0.0264,-0.0392,-0.0425,-0.0477,-0.0586,-0.0626,-0.0622,-0.0748,-0.075,-0.0736,-0.0702,-0.0667,-0.0681,-0.0712,-0.0712,-0.0712,0,0.0161,0.0198,0.0269,0.0298,0.03,0.0308,0.0277,0.0253,0.0169,0.0109,0.0034,-0.0074,-0.014,-0.026,-0.0402,-0.0395,-0.0529,-0.0623,-0.0628,-0.067,-0.076,-0.0715,-0.0677,-0.0709,-0.0709,-0.0709,-0.071,0,0.0227,0.0284,0.0348,0.0355,0.0367,0.0373,0.0368,0.0303,0.0305,0.0233,0.0253,0.0114,0.0089,-0.0093,-0.0304,-0.0351,-0.0448,-0.0544,-0.0684,-0.0687,-0.0693,-0.0696,-0.0654,-0.0654,-0.0654,-0.0654,-0.0654,0,0.0299,0.0349,0.0386,0.0421,0.0488,0.0459,0.0508,0.0477,0.047,0.0532,0.0365,0.0396,0.0129,0.0024,-0.0211,-0.0406,-0.0382,-0.0637,-0.0685,-0.0655,-0.0655,-0.0716,-0.0723,-0.0655,-0.0654,-0.0654,-0.0654,0,0.0352,0.0382,0.0463,0.0508,0.0523,0.0568,0.0622,0.067,0.0648,0.0742,0.0738,0.0636,0.0494,0.0221,-0.0042,-0.0248,-0.047,-0.0569,-0.05,-0.054,-0.071,-0.0712,-0.0703,-0.0703,-0.0704,-0.0704,-0.0704,0,0.0398,0.0435,0.0529,0.0589,0.0612,0.0673,0.0731,0.0742,0.0823,0.0898,0.0982,0.087,0.0791,0.0417,0.0027,-0.0351,-0.0446,-0.0557,-0.066,-0.0663,-0.0712,-0.0713,-0.0713,-0.0624,-0.0624,-0.0624,-0.0623,0,0.0457,0.0479,0.055,0.0682,0.0769,0.0872,0.0972,0.107,0.1135,0.1213,0.1317,0.1254,0.0906,0.0532,0.002,-0.0248,-0.0493,-0.0563,-0.0564,-0.0621,-0.0592,-0.0639,-0.0642,-0.062,-0.0621,-0.0621,-0.0621,-0.0621,0.0497,0.0563,0.066,0.0789,0.0903,0.107,0.1193,0.1323,0.1473,0.161,0.1549,0.1464,0.105,0.0373,-0.0027,-0.0449,-0.0486,-0.0655,-0.0654,-0.0655,-0.0645,-0.062,-0.0649,-0.065,-0.065,-0.0651,-0.0651,0,0.0547,0.0626,0.0759,0.094,0.1095,0.1135,0.1359,0.1478,0.169,0.1761,0.1782,0.1372,0.0934,0.0468,-0.0151,-0.0533,-0.0576,-0.0647,-0.0621,-0.0622,-0.0624,-0.0612,-0.0608,-0.0609,-0.0609,-0.0609,0,0,0.0583,0.0718,0.0805,0.1072,0.12,0.1426,0.1575,0.1736,0.1834,0.1875,0.1806,0.1619,0.1058,0.0627,0.0105,-0.0232,-0.033,-0.0302,-0.0303,-0.0211,-0.0206,-0.0606,-0.0588,0,0,0,0,0]}],[{"header":{"parameterUnit":"m.s-1","parameterCategory":2,"la1":30.2991,"la2":30.254,"lo1":-89.0895,"lo2":-89.0444,"dx":0.0017,"dy":0.0017,"nx":28,"ny":28,"refTime":"2022-12-05T15:00:00:Z","depth":"4","parameterNumber":2,"parameterNumberName":"U-component_of_CURRENTS"},"data":[0,0,0,0,0,0,0,0,0,0,0,0,0,0,0,0,0,0,0,0,0,0,0,0,0,0,0,0,0,0,0,0,0,0,0,0,0,0,0,0,0,0,0,0,0,0,0,0,0,0,0,0,0,0,0,0,0,0,0.1098,0.1099,0,0.1165,0.1166,0.1166,0.1206,0.1207,0.1207,0.1207,0.1227,0.1227,0.1227,0,0,0,0,0,0,0,0,0,0,0,0,0,0.1036,0.1036,0.1098,0.1099,0.11,0.1165,0.1166,0.1167,0.1206,0.1207,0.1207,0.1208,0.1226,0.1227,0.1227,0,0,0,0,0,0,0,0,0,0,0,0,0,0.1077,0.1036,0.1098,0.1129,0.1132,0.1165,0.1166,0.1167,0.1206,0.1207,0.1207,0.1208,0.1226,0.1227,0.1227,0.122,0,0,0.1228,0.1228,0,0,0,0,0,0,0,0,0.1075,0.1079,0.1123,0.1127,0.1131,0.1179,0.1151,0.1183,0.1206,0.1177,0.1207,0.1208,0.1207,0.1209,0.1219,0.1221,0.1222,0.1228,0.1228,0.1228,0.1229,0,0,0,0,0,0,0,0.1072,0.1077,0.1123,0.1124,0.1129,0.115,0.1156,0.1157,0.1186,0.1179,0.1183,0.1192,0.1208,0.1219,0.122,0.1222,0.1228,0.1228,0.1229,0.1229,0.1325,0.1327,0,0,0,0,0,0,0.1064,0.1074,0.1121,0.1125,0.1105,0.1151,0.1157,0.1162,0.1188,0.1193,0.1192,0.1194,0.1218,0.1219,0.122,0.131,0.1228,0.1229,0.1229,0.1323,0.1326,0.1328,0,0,0,0,0,0,0.1063,0.1068,0.1119,0.1103,0.1111,0.1151,0.1156,0.1163,0.1209,0.1198,0.1202,0.1235,0.1218,0.122,0.1267,0.1307,0.1229,0.1229,0.132,0.1324,0.1327,0.1427,0,0,0,0,0,0,0.106,0.1066,0.1085,0.1102,0.1111,0.1166,0.1156,0.1164,0.1213,0.1217,0.1235,0.1236,0.1219,0.1267,0.1268,0.1306,0.1229,0.1317,0.1322,0.1326,0.1421,0.1434,0.1445,0,0,0,0,0,0.1058,0.1079,0.1085,0.1092,0.1129,0.1168,0.1176,0.1204,0.1215,0.1245,0.1267,0.1237,0.1295,0.127,0.127,0.1309,0.1315,0.132,0.1326,0.1416,0.1431,0.1444,0,0,0,0,0,0,0.1066,0.1085,0.1093,0.112,0.1154,0.1176,0.1208,0.1227,0.1268,0.1279,0.1268,0.1271,0.1328,0.1308,0.128,0.1352,0.13,0.1305,0.1368,0.1383,0.1394,0.1391,0.123,0,0,0,0,0,0.1073,0.1093,0.1118,0.1145,0.1162,0.1192,0.1218,0.124,0.1269,0.129,0.1308,0.1324,0.1344,0.1357,0.137,0.1407,0.1403,0.1433,0.1445,0.1455,0.1454,0.1509,0.1525,0.1346,0.1346,0.1346,0,0,0.108,0.1098,0.1109,0.1149,0.1173,0.1207,0.121,0.126,0.1297,0.1283,0.1351,0.1371,0.1366,0.1415,0.1437,0.1406,0.1506,0.1462,0.147,0.1463,0.1516,0.1533,0.1549,0.1349,0.1349,0.1348,0,0,0.1102,0.1125,0.1148,0.118,0.1229,0.1246,0.1269,0.1317,0.1352,0.1411,0.1418,0.1466,0.1494,0.1506,0.1508,0.1592,0.1572,0.1604,0.1656,0.171,0.1725,0.1738,0.176,0.1774,0.1605,0.1605,0.1605,0,0.1111,0.1144,0.1166,0.1201,0.1232,0.1266,0.1306,0.1341,0.1406,0.1446,0.1446,0.1536,0.1529,0.1591,0.162,0.1617,0.1642,0.16,0.1726,0.1739,0.175,0.1769,0.1784,0.161,0.161,0.1609,0.1609,0,0.1144,0.1184,0.1205,0.1252,0.129,0.1335,0.1378,0.1437,0.148,0.1518,0.1613,0.1631,0.1684,0.1694,0.1676,0.1766,0.1755,0.174,0.1688,0.1775,0.1789,0.1802,0.1618,0.1616,0.1614,0.1613,0,0,0.1123,0.1209,0.1222,0.1254,0.1325,0.1355,0.1427,0.1501,0.1563,0.1632,0.1719,0.1762,0.18,0.1806,0.1816,0.1852,0.1948,0.1839,0.1839,0.1856,0.2067,0.1957,0.196,0.1973,0.1976,0.1978,0.2045,0,0.1145,0.1216,0.126,0.133,0.1362,0.1425,0.1488,0.1563,0.1632,0.1726,0.1774,0.1858,0.1834,0.1886,0.1924,0.1948,0.1988,0.193,0.1983,0.1983,0.1872,0.1973,0.1987,0.2054,0.2057,0.2059,0.2061,0,0.116,0.1205,0.1279,0.1369,0.1393,0.1447,0.1561,0.1627,0.1752,0.1814,0.1913,0.1964,0.2049,0.2014,0.2101,0.2077,0.2083,0.2085,0.2088,0.1955,0.1898,0.1949,0.2084,0.2082,0.2081,0.2079,0.2078,0,0.1121,0.1219,0.128,0.131,0.1414,0.1475,0.1544,0.1665,0.1736,0.1893,0.197,0.2076,0.2148,0.2187,0.2206,0.2175,0.2288,0.2238,0.2141,0.2132,0.2163,0.2148,0.2301,0.2301,0.2301,0.2301,0.23,0,0.1111,0.1159,0.1273,0.1301,0.1386,0.147,0.1581,0.167,0.1807,0.1902,0.2024,0.211,0.2203,0.2277,0.2265,0.2252,0.2343,0.2165,0.2154,0.2203,0.2192,0.2172,0.2156,0.2303,0.2303,0.2302,0.2302,0,0.1049,0.113,0.1195,0.1319,0.1369,0.1429,0.1588,0.1657,0.181,0.1941,0.2003,0.2166,0.2269,0.2336,0.2403,0.2319,0.2318,0.229,0.235,0.2338,0.2102,0.2091,0.217,0.2167,0.2165,0.2163,0.2161,0,0.1019,0.105,0.1189,0.1231,0.1294,0.1405,0.1479,0.1641,0.1713,0.1952,0.1995,0.2177,0.2269,0.2278,0.2345,0.2346,0.2309,0.2281,0.2171,0.2114,0.2096,0.2088,0.2081,0.2157,0.2156,0.2155,0.2155,0,0.0944,0.101,0.1063,0.116,0.1242,0.1324,0.1445,0.1493,0.1686,0.1842,0.1962,0.2041,0.2158,0.2208,0.2251,0.2233,0.2282,0.2253,0.2256,0.2151,0.2098,0.2081,0.2076,0.2146,0.2147,0.2148,0.2148,0,0.0888,0.0906,0.0995,0.1069,0.1155,0.1209,0.1298,0.1401,0.1503,0.1764,0.18,0.1992,0.2147,0.2151,0.218,0.2179,0.2116,0.2006,0.202,0.2031,0.1954,0.1864,0.1847,0,0,0,0,0,0.0829,0.0843,0.0897,0.097,0.1044,0.1104,0.1251,0.1343,0.1543,0.1583,0.1691,0.18,0.189,0.1975,0.1941,0.2088,0.2104,0.2035,0.1979,0.2096,0.2106,0.2028,0,0,0,0,0,0,0.0787,0.0829,0.0859,0.0864,0.089,0.0969,0.1058,0.1199,0.1235,0.1448,0.1509,0.1666,0.1775,0.1889,0.1897,0.1921,0.1842,0.2147,0.2142,0.209,0.2099,0.2108,0.2031,0,0,0,0,0]},{"header":{"parameterUnit":"m.s-1","parameterCategory":2,"la1":30.2991,"la2":30.254,"lo1":-89.0895,"lo2":-89.0444,"dx":0.0017,"dy":0.0017,"nx":28,"ny":28,"refTime":"2022-12-05T15:00:00:Z","depth":"4","parameterNumber":3,"parameterNumberName":"V-component_of_CURRENTS"},"data":[0,0,0,0,0,0,0,0,0,0,0,0,0,0,0,0,0,0,0,0,0,0,0,0,0,0,0,0,0,0,0,0,0,0,0,0,0,0,0,0,0,0,0,0,0,0,0,0,0,0,0,0,0,0,0,0,0,0,0.0107,0.0107,0,0.0041,0.004,0.0039,-0.0016,-0.0017,-0.0017,-0.0017,-0.016,-0.0163,-0.0166,0,0,0,0,0,0,0,0,0,0,0,0,0,0.0117,0.0118,0.0108,0.0107,0.0106,0.0041,0.004,0.0039,-0.0016,-0.0017,-0.0017,-0.0018,-0.0159,-0.0163,-0.0167,0,0,0,0,0,0,0,0,0,0,0,0,0,0.0087,0.0118,0.0108,0.0072,0.0068,0.0041,0.004,0.0039,-0.0016,-0.0017,-0.0017,-0.0018,-0.0157,-0.0162,-0.0167,-0.0185,0,0,-0.0183,-0.0185,0,0,0,0,0,0,0,0,0.0089,0.0086,0.0078,0.0074,0.007,0.0022,-0.0009,-0.0039,-0.0016,0.0014,-0.0017,-0.0018,-0.0105,-0.0114,-0.0126,-0.0192,-0.0198,-0.0183,-0.0186,-0.0189,-0.019,0,0,0,0,0,0,0,0.0091,0.0088,0.0079,0.0077,0.0073,0.0036,0.0031,-0.0015,-0.0043,0.0012,0.0008,0.0003,-0.0108,-0.0121,-0.013,-0.02,-0.0183,-0.0188,-0.0191,-0.0193,-0.0281,-0.028,0,0,0,0,0,0,0.0107,0.0091,0.0082,0.0078,0.008,0.0037,0.0031,0.0036,-0.0041,-0.0053,0.0004,0.0001,-0.0112,-0.0124,-0.0136,-0.016,-0.0189,-0.0193,-0.0196,-0.0281,-0.028,-0.028,0,0,0,0,0,0,0.0108,0.0107,0.0084,0.0083,0.0078,0.0038,0.0044,0.0036,0.0018,-0.0046,-0.0059,-0.0006,-0.0113,-0.0129,-0.0164,-0.0167,-0.0196,-0.02,-0.0282,-0.0281,-0.028,-0.0211,0,0,0,0,0,0,0.0108,0.0108,0.0114,0.0085,0.0079,0.0072,0.0044,0.0035,0.0017,0.0012,-0.0059,-0.0072,-0.0115,-0.0156,-0.0169,-0.0174,-0.0204,-0.0283,-0.0282,-0.028,-0.0214,-0.0208,-0.0202,0,0,0,0,0,0.0109,0.0126,0.0115,0.0113,0.009,0.0073,0.0066,0.0033,0.0018,0.0014,-0.0025,-0.007,-0.0157,-0.0159,-0.0175,-0.0182,-0.0284,-0.0282,-0.028,-0.0217,-0.0209,-0.0202,0,0,0,0,0,0,0.0134,0.0122,0.0108,0.0121,0.0099,0.0064,0.0062,0.0037,0.0004,-0.0,-0.0063,-0.0078,-0.0112,-0.015,-0.0151,-0.02,-0.0228,-0.0229,-0.0174,-0.0167,-0.0161,-0.0155,-0.0208,0,0,0,0,0,0.0144,0.0154,0.0129,0.0138,0.0132,0.0096,0.0084,0.0063,0.0032,0.0016,-0.003,-0.0076,-0.0117,-0.0143,-0.0184,-0.0212,-0.0263,-0.0225,-0.0219,-0.0213,-0.0216,-0.0297,-0.0299,-0.0274,-0.0274,-0.0274,0,0,0.0157,0.0151,0.0156,0.0144,0.0126,0.0126,0.0087,0.0078,0.0072,0.0005,-0.0014,-0.006,-0.0118,-0.0146,-0.0165,-0.018,-0.0242,-0.0211,-0.0206,-0.0213,-0.0295,-0.0298,-0.03,-0.0273,-0.0274,-0.0274,0,0,0.019,0.0184,0.0201,0.0189,0.017,0.0149,0.0149,0.0116,0.0097,0.0075,0.0027,-0.0015,-0.0073,-0.0117,-0.0146,-0.0132,-0.0207,-0.0145,-0.0115,-0.0192,-0.0195,-0.0199,-0.0247,-0.0255,-0.0143,-0.0143,-0.0143,0,0.0204,0.0224,0.0201,0.0212,0.0209,0.0165,0.0178,0.0154,0.0112,0.0098,0.008,-0.0011,-0.006,-0.0108,-0.0099,-0.0122,-0.0169,-0.0138,-0.0186,-0.0191,-0.0195,-0.0244,-0.0255,-0.0139,-0.014,-0.014,-0.014,0,0.0244,0.0259,0.027,0.0272,0.0263,0.0269,0.0238,0.0223,0.0195,0.0164,0.0115,0.0047,-0.0009,-0.0031,-0.0062,-0.0117,-0.0138,-0.0169,-0.0206,-0.0194,-0.0245,-0.0257,-0.0134,-0.0135,-0.0136,-0.0137,0,0,0.0276,0.0296,0.0299,0.0313,0.0297,0.0296,0.0292,0.027,0.0264,0.0209,0.0186,0.0112,0.0065,0.003,-0.0027,-0.0094,-0.0159,-0.0139,-0.0144,-0.0188,-0.0315,-0.0284,-0.0294,-0.0205,-0.0207,-0.0209,-0.0329,0,0.0313,0.0355,0.0349,0.0383,0.0401,0.0368,0.0371,0.0342,0.0305,0.0272,0.0187,0.0145,0.0091,0.0063,-0.0013,-0.013,-0.0191,-0.0122,-0.0318,-0.0323,-0.0301,-0.0308,-0.0216,-0.0339,-0.0342,-0.0344,-0.0345,0,0.0347,0.0374,0.0419,0.0445,0.0449,0.0462,0.0451,0.0447,0.0389,0.0357,0.0288,0.0217,0.0117,0.0072,-0.0127,-0.0083,-0.0186,-0.0276,-0.0284,-0.0292,-0.0316,-0.036,-0.0368,-0.0366,-0.0364,-0.0363,-0.0361,0,0.0376,0.0418,0.046,0.0468,0.0488,0.0504,0.0512,0.0476,0.0476,0.0409,0.0392,0.0255,0.019,0.0029,-0.0147,-0.0146,-0.0366,-0.0391,-0.0458,-0.0457,-0.048,-0.0476,-0.0527,-0.0527,-0.0526,-0.0526,-0.0526,0,0.0409,0.0442,0.0484,0.0508,0.0562,0.0556,0.0594,0.0575,0.0548,0.0551,0.0444,0.0397,0.0171,0.0024,-0.0138,-0.0331,-0.0364,-0.0457,-0.0493,-0.0443,-0.0433,-0.0488,-0.0482,-0.053,-0.053,-0.0529,-0.0528,0,0.0427,0.0454,0.0512,0.0559,0.0581,0.062,0.0669,0.0685,0.0658,0.0653,0.0637,0.0483,0.029,0.0076,-0.0194,-0.0305,-0.0499,-0.0554,-0.0465,-0.0494,-0.0539,-0.0528,-0.0648,-0.0648,-0.0648,-0.0648,-0.0648,0,0.0439,0.0473,0.0556,0.0598,0.0628,0.0691,0.0733,0.074,0.0758,0.0705,0.0699,0.0526,0.0406,0.0063,-0.0177,-0.0477,-0.0513,-0.0597,-0.0587,-0.0532,-0.0555,-0.0544,-0.0533,-0.0648,-0.0648,-0.0648,-0.0648,0,0.0466,0.0499,0.0548,0.0643,0.0707,0.078,0.0843,0.0864,0.0866,0.0842,0.0754,0.0576,0.0361,0.0077,-0.015,-0.0369,-0.054,-0.0598,-0.06,-0.0592,-0.0534,-0.0554,-0.0543,-0.0648,-0.0648,-0.0648,-0.0648,0,0.0484,0.0525,0.0598,0.0676,0.0762,0.084,0.0876,0.09,0.0917,0.0864,0.0826,0.0599,0.0451,0.0132,-0.0086,-0.0291,-0.0345,-0.0395,-0.0408,-0.0411,-0.0307,-0.0196,-0.0241,0,0,0,0,0,0.0498,0.0546,0.0623,0.0714,0.0799,0.0856,0.093,0.0954,0.0963,0.0921,0.0881,0.0688,0.0361,0.02,-0.0,-0.0105,-0.0392,-0.0344,-0.0458,-0.0649,-0.0649,-0.0564,0,0,0,0,0,0,0.0507,0.058,0.0622,0.0732,0.0796,0.0898,0.0952,0.0962,0.094,0.0913,0.0734,0.0654,0.0321,0.0474,-0.0002,-0.0068,-0.0161,-0.0504,-0.0507,-0.0649,-0.0649,-0.0649,-0.0562,0,0,0,0,0]}]]